EW6761 Weather Reports


time (UTC)temp
C
wind
direction
speed
KPH
gust
KPH
rain 1hr
cm
rain 24hr
cm
rain mn
cm
humidity
%
barometer
mb
20260510094551 16 272 0.0 3.2 0.00 3.84 3.84 87 1012.4
20260510093014 16 357 0.0 3.2 0.08 3.84 3.84 86 1011.7
20260510091552 16 357 0.0 17.7 0.10 3.84 3.84 85 1010.4
20260510090007 16 142 1.6 9.7 0.43 3.84 3.84 88 1009.1
20260510084605 16 306 1.6 11.3 2.01 3.81 3.84 89 1010.8
20260510083029 16 338 0.0 4.8 2.01 3.76 3.76 90 1012.7
20260510081600 17 217 1.6 12.9 2.03 3.73 3.73 90 1013.2
20260510080039 17 127 1.6 16.1 3.00 3.53 3.51 90 1013.9
20260510074552 17 296 4.8 11.3 1.73 1.83 1.80 90 1013.5
20260510073026 17 104 1.6 17.7 1.75 1.78 1.75 89 1012.5
20260510071505 17 132 3.2 9.7 1.63 1.65 1.65 89 1012.4
20260510070028 17 335 1.6 6.4 0.46 0.48 0.46 87 1013.0
20260510064554 18 189 0.0 4.8 0.05 0.08 0.08 75 1011.7
20260510063035 20 26 1.6 8.0 0.00 0.03 0.00 61 1011.7
20260510061510 20 112 0.0 6.4 0.00 0.03 0.00 58 1011.7
20260510060050 20 175 0.0 6.4 0.00 0.03 0.00 60 1011.4
20260510054504 20 121 0.0 6.4 0.00 0.03 0.00 60 1011.4
20260510053044 20 157 0.0 6.4 0.00 0.03 0.00 59 1011.5
20260510051519 20 138 0.0 4.8 0.00 0.03 0.00 57 1011.3
20260510050058 20 121 0.0 3.2 0.00 0.03 0.03 58 1011.0
20260510044600 20 97 0.0 0.0 0.00 0.03 0.03 58 1011.0
20260510044501 20 97 0.0 1.6 0.00 0.03 0.03 58 1011.0
20260510043043 20 97 0.0 1.6 0.00 0.03 0.03 57 1010.7
20260510041517 20 109 0.0 1.6 0.00 0.03 0.03 58 1010.6
20260510040059 19 109 0.0 0.0 0.00 0.03 0.03 61 1010.7
20260510034516 18 109 0.0 0.0 0.00 0.03 0.03 63 1010.5
20260510033102 18 109 0.0 0.0 0.00 0.03 0.03 60 1010.4
20260510031527 18 109 0.0 0.0 0.00 0.03 0.03 61 1010.0
20260510030105 18 109 0.0 0.0 0.00 0.36 0.03 59 1009.4
20260510024522 18 109 0.0 0.0 0.00 0.36 0.03 58 1009.2
20260510023059 18 109 0.0 0.0 0.00 0.36 0.03 59 1008.9
20260510023001 19 109 0.0 0.0 0.00 0.36 0.03 61 1009.0
20260510021539 19 109 0.0 0.0 0.00 0.36 0.03 58 1008.8
20260510020116 20 109 0.0 0.0 0.00 0.36 0.03 55 1008.7
20260510014540 20 109 0.0 0.0 0.00 0.36 0.03 53 1008.6
20260510013010 21 109 0.0 0.0 0.00 0.36 0.03 49 1008.3
20260510011547 22 109 0.0 0.0 0.00 0.36 0.03 45 1008.1
20260510010005 24 109 0.0 0.0 0.00 0.36 0.03 41 1007.9
20260510004543 26 109 0.0 0.0 0.00 0.36 0.03 36 1007.9
20260510003023 28 109 0.0 0.0 0.00 0.36 0.03 30 1007.7
20260510001557 29 109 0.0 1.6 0.00 0.36 0.03 30 1007.7
20260510000018 30 296 0.0 1.6 0.00 0.36 0.03 27 1007.9
20260509234559 29 25 0.0 3.2 0.00 0.36 0.03 27 1008.0
20260509233033 30 156 0.0 4.8 0.00 0.36 0.03 23 1008.0
20260509231509 29 184 1.6 6.4 0.00 0.36 0.03 26 1008.1
20260509230045 30 92 1.6 8.0 0.00 0.36 0.03 24 1008.1
20260509224506 30 117 0.0 8.0 0.00 0.36 0.03 26 1008.2
20260509223054 30 138 1.6 6.4 0.00 0.36 0.03 22 1008.1
20260509221519 30 312 0.0 8.0 0.00 0.36 0.03 22 1008.2
20260509220057 30 244 0.0 3.2 0.00 0.36 0.03 30 1008.3
20260509214510 30 23 0.0 4.8 0.00 0.36 0.03 29 1008.3
20260509213049 30 199 0.0 9.7 0.00 0.36 0.03 30 1008.3
20260509211525 30 95 0.0 4.8 0.00 0.36 0.03 33 1008.6
20260509210109 30 170 0.0 6.4 0.00 0.36 0.03 36 1008.6
20260509204528 30 310 1.6 9.7 0.00 0.36 0.03 35 1008.8
20260509203003 30 10 0.0 6.4 0.00 0.36 0.03 32 1008.9
20260509201543 29 72 0.0 8.0 0.00 0.36 0.03 33 1009.2
20260509200115 30 315 0.0 9.7 0.00 0.36 0.03 34 1009.3
20260509194536 29 114 1.6 6.4 0.00 0.36 0.03 32 1009.4
20260509193006 29 158 3.2 6.4 0.00 0.36 0.03 32 1009.6
20260509191545 28 122 3.2 9.7 0.00 0.36 0.03 33 1009.6
20260509190118 28 96 0.0 6.4 0.00 0.36 0.03 40 1009.6
20260509184554 28 156 1.6 8.0 0.00 0.36 0.03 35 1009.7
20260509183019 28 325 1.6 4.8 0.00 0.36 0.03 33 1009.8
20260509181612 28 320 1.6 9.7 0.00 0.36 0.03 35 1010.0
20260509180030 27 8 1.6 8.0 0.00 0.36 0.03 39 1010.1
20260509174549 27 37 3.2 6.4 0.00 0.36 0.03 51 1010.2
20260509173024 27 142 0.0 3.2 0.00 0.36 0.03 50 1010.1
20260509171505 26 7 1.6 6.4 0.00 0.36 0.03 55 1010.2
20260509170021 26 351 1.6 4.8 0.00 0.36 0.03 63 1010.3
20260509164555 25 158 1.6 4.8 0.00 0.36 0.03 61 1010.5
20260509163035 24 332 1.6 4.8 0.00 0.36 0.03 67 1010.6
20260509161512 23 32 0.0 4.8 0.00 0.36 0.03 68 1010.6
20260509160049 23 333 0.0 3.2 0.00 0.36 0.03 71 1010.7
20260509154508 22 277 1.6 8.0 0.00 0.36 0.03 72 1010.8
20260509153046 22 360 1.6 4.8 0.00 0.36 0.03 72 1010.8
20260509151518 22 2 0.0 3.2 0.00 0.36 0.03 71 1010.8
20260509150048 22 309 0.0 1.6 0.00 0.36 0.03 71 1010.9
20260509144611 21 352 0.0 1.6 0.00 0.36 0.03 74 1010.7
20260509144509 21 352 0.0 1.6 0.00 0.36 0.03 74 1010.8
20260509143042 20 75 0.0 3.2 0.00 0.36 0.03 76 1010.9
20260509141522 19 300 0.0 3.2 0.00 0.36 0.03 78 1010.9
20260509140104 18 290 0.0 3.2 0.00 0.36 0.03 79 1010.8
20260509134506 19 279 0.0 3.2 0.00 0.36 0.03 78 1010.7
20260509133048 18 360 0.0 0.0 0.00 0.36 0.03 81 1010.7
20260509131526 17 295 0.0 1.6 0.00 0.36 0.03 84 1010.5
20260509130101 17 157 0.0 0.0 0.00 0.36 0.03 83 1010.3
20260509124518 16 157 0.0 0.0 0.00 0.36 0.03 90 1010.1
20260509123127 15 157 0.0 0.0 0.00 0.36 0.03 92 1010.1
20260509121548 13 157 0.0 0.0 0.00 0.36 0.03 93 1009.8
20260509120116 13 156 0.0 0.0 0.00 0.36 0.03 93 1009.8
20260509114540 12 156 0.0 0.0 0.00 0.36 0.03 93 1009.5
20260509113026 12 156 0.0 0.0 0.00 0.36 0.03 93 1009.4
20260509111605 12 156 0.0 0.0 0.00 0.36 0.03 93 1009.3
20260509110038 12 156 0.0 0.0 0.00 0.36 0.03 93 1009.3
20260509104558 12 156 0.0 0.0 0.00 0.36 0.03 92 1009.2
20260509103045 12 156 0.0 0.0 0.00 0.36 0.03 92 1009.1
20260509101513 13 156 0.0 0.0 0.00 0.36 0.03 92 1009.1
20260509100052 13 156 0.0 0.0 0.00 0.36 0.03 92 1009.0